| time (UTC) | temp C | wind direction | speed KPH | gust KPH | rain 1hr cm | rain 24hr cm | rain mn cm | humidity % | barometer mb |
| 20260503203145 | 30 | 67 | 3.2 | 12.9 | 0.00 | 0.00 | 0.00 | 35 | 1013.6 |
| 20260503201530 | 29 | 73 | 0.0 | 8.0 | 0.00 | 0.00 | 0.00 | 37 | 1013.7 |
| 20260503194530 | 29 | 36 | 1.6 | 8.0 | 0.00 | 0.00 | 0.00 | 40 | 1014.1 |
| 20260503193031 | 28 | 64 | 0.0 | 4.8 | 0.00 | 0.00 | 0.00 | 42 | 1014.3 |
| 20260503191530 | 28 | 50 | 0.0 | 6.4 | 0.00 | 0.00 | 0.00 | 45 | 1014.5 |
| 20260503190030 | 27 | 75 | 0.0 | 8.0 | 0.00 | 0.00 | 0.00 | 43 | 1014.7 |
| 20260503180030 | 25 | 38 | 0.0 | 6.4 | 0.00 | 0.00 | 0.00 | 46 | 1015.3 |
| 20260503174531 | 25 | 32 | 0.0 | 4.8 | 0.00 | 0.00 | 0.00 | 46 | 1015.5 |
| 20260503173030 | 25 | 27 | 0.0 | 4.8 | 0.00 | 0.00 | 0.00 | 46 | 1015.7 |
| 20260503171529 | 24 | 35 | 0.0 | 4.8 | 0.00 | 0.00 | 0.00 | 51 | 1015.7 |
| 20260503170107 | 23 | 75 | 0.0 | 1.6 | 0.00 | 0.00 | 0.00 | 50 | 1015.8 |
| 20260503140145 | 9 | 160 | 0.0 | 3.2 | 0.00 | 0.00 | 0.00 | 92 | 1016.3 |
| 20260503130145 | 8 | 189 | 0.0 | 4.8 | 0.00 | 0.00 | 0.00 | 92 | 1016.0 |
| 20260503081526 | 12 | 169 | 1.6 | 4.8 | 0.00 | 0.00 | 0.00 | 88 | 1015.7 |
| 20260503071531 | 12 | 174 | 0.0 | 3.2 | 0.00 | 0.00 | 0.00 | 87 | 1015.8 |
| 20260503054532 | 15 | 176 | 0.0 | 4.8 | 0.00 | 0.00 | 0.00 | 84 | 1015.6 |
| 20260503053026 | 15 | 184 | 0.0 | 3.2 | 0.00 | 0.00 | 0.00 | 83 | 1015.7 |
| 20260503051530 | 15 | 189 | 0.0 | 3.2 | 0.00 | 0.00 | 0.00 | 83 | 1015.6 |
| 20260503050031 | 15 | 155 | 0.0 | 3.2 | 0.00 | 0.00 | 0.00 | 83 | 1015.5 |
| 20260503044529 | 16 | 135 | 0.0 | 4.8 | 0.00 | 0.00 | 0.00 | 82 | 1015.4 |
| 20260503043106 | 16 | 90 | 0.0 | 0.0 | 0.00 | 0.00 | 0.00 | 81 | 1015.2 |
| 20260503041529 | 17 | 208 | 0.0 | 0.0 | 0.00 | 0.00 | 0.00 | 79 | 1015.0 |
| 20260503040035 | 17 | 225 | 0.0 | 1.6 | 0.00 | 0.00 | 0.00 | 75 | 1014.7 |
| 20260503034531 | 18 | 225 | 0.0 | 0.0 | 0.00 | 0.00 | 0.00 | 78 | 1014.5 |
| 20260503033146 | 18 | 184 | 0.0 | 3.2 | 0.00 | 0.00 | 0.00 | 77 | 1014.1 |
| 20260503031529 | 20 | 127 | 0.0 | 3.2 | 0.00 | 0.00 | 0.00 | 72 | 1013.7 |
| 20260503024604 | 21 | 67 | 0.0 | 0.0 | 0.00 | 0.00 | 0.00 | 69 | 1013.3 |
| 20260503023030 | 22 | 67 | 0.0 | 0.0 | 0.00 | 0.00 | 0.00 | 67 | 1013.2 |
| 20260503021647 | 22 | 67 | 0.0 | 0.0 | 0.00 | 0.00 | 0.00 | 66 | 1013.0 |
| 20260503020035 | 23 | 67 | 0.0 | 0.0 | 0.00 | 0.00 | 0.00 | 65 | 1012.9 |
| 20260503014529 | 24 | 67 | 0.0 | 0.0 | 0.00 | 0.00 | 0.00 | 60 | 1012.9 |
| 20260503013104 | 25 | 67 | 0.0 | 0.0 | 0.00 | 0.00 | 0.00 | 55 | 1012.9 |
| 20260503011530 | 25 | 63 | 0.0 | 3.2 | 0.00 | 0.00 | 0.00 | 56 | 1012.9 |
| 20260503010032 | 26 | 67 | 0.0 | 0.0 | 0.00 | 0.00 | 0.00 | 54 | 1012.9 |
| 20260503004528 | 27 | 61 | 0.0 | 4.8 | 0.00 | 0.00 | 0.00 | 50 | 1012.9 |
| 20260503003030 | 28 | 41 | 0.0 | 1.6 | 0.00 | 0.00 | 0.00 | 44 | 1012.9 |
| 20260503000145 | 28 | 151 | 0.0 | 1.6 | 0.00 | 0.00 | 0.00 | 38 | 1013.0 |
| 20260502234532 | 28 | 161 | 0.0 | 4.8 | 0.00 | 0.00 | 0.00 | 40 | 1013.2 |
| 20260502233032 | 28 | 257 | 0.0 | 4.8 | 0.00 | 0.00 | 0.00 | 41 | 1013.4 |
| 20260502230032 | 27 | 292 | 0.0 | 3.2 | 0.00 | 0.00 | 0.00 | 43 | 1013.7 |
| 20260502223031 | 28 | 38 | 0.0 | 3.2 | 0.00 | 0.00 | 0.00 | 43 | 1014.2 |
| 20260502220029 | 25 | 3 | 0.0 | 3.2 | 0.00 | 0.00 | 0.00 | 49 | 1014.7 |
| 20260502214532 | 24 | 207 | 0.0 | 8.0 | 0.00 | 0.00 | 0.00 | 54 | 1014.9 |
| 20260502211530 | 23 | 66 | 0.0 | 4.8 | 0.00 | 0.00 | 0.00 | 57 | 1015.2 |
| 20260502204532 | 22 | 25 | 0.0 | 4.8 | 0.00 | 0.00 | 0.00 | 62 | 1015.6 |